Hourly Data Report for July 16, 2017

TORONTO CITY
ONTARIO

43°40'00.000" N
79°24'00.000" W
112.50 m
6158355
71508
XTO

Download Data

Hourly Data (July 2017)
Hourly Data Report for July 16, 2017
TIME
LST
Temp Definition
°C
Dew Point Definition
°C
Rel Hum Definition
%
Precip. Amount Definition
mm

Wind Dir Definition
10's deg

Wind Spd Definition
km/h
Visibility Definition
km
Stn Press Definition
kPa
Hmdx Definition


Wind Chill Definition


Weather Definition


00:00 19.4 8.6 50 0.0 LegendMM LegendMM   100.06     LegendNANA
01:00 20.7 8.9 47 0.0 LegendMM LegendMM   100.06     LegendNANA
02:00 18.9 10.3 57 0.0 LegendMM LegendMM   100.03     LegendNANA
03:00 18.9 11.9 64 0.0 LegendMM LegendMM   100.01     LegendNANA
04:00 18.4 13.4 73 0.0 LegendMM LegendMM   100.03     LegendNANA
05:00 18.1 14.0 77 0.0 LegendMM LegendMM   100.04     LegendNANA
06:00 18.9 15.9 83 0.0 LegendMM LegendMM   100.04     LegendNANA
07:00 20.5 15.7 74 0.0 LegendMM LegendMM   100.02 25   LegendNANA
08:00 21.5 16.5 73 0.0 LegendMM LegendMM   100.03 26   LegendNANA
09:00 23.2 16.5 66 0.0 LegendMM LegendMM   100.01 28   LegendNANA
10:00 24.4 17.2 64 0.0 LegendMM LegendMM   100.02 30   LegendNANA
11:00 24.4 17.3 65 0.0 LegendMM LegendMM   100.06 30   LegendNANA
12:00 24.8 17.5 64 0.0 LegendMM LegendMM   99.97 30   LegendNANA
13:00 25.0 16.7 60 0.0 LegendMM LegendMM   99.98 30   LegendNANA
14:00 25.1 18.1 65 0.0 LegendMM LegendMM   99.97 31   LegendNANA
15:00 24.2 17.6 67 0.0 LegendMM LegendMM   99.97 30   LegendNANA
16:00 24.7 17.5 64 0.0 LegendMM LegendMM   99.95 30   LegendNANA
17:00 23.0 17.4 71 0.0 LegendMM LegendMM   99.97 29   LegendNANA
18:00 22.9 18.0 74 0.0 LegendMM LegendMM   100.00 29   LegendNANA
19:00 22.3 17.6 75 0.0 LegendMM LegendMM   100.02 28   LegendNANA
20:00 21.2 17.9 81 0.0 LegendMM LegendMM   100.02 27   LegendNANA
21:00 20.8 17.9 84 0.0 LegendMM LegendMM   100.06 27   LegendNANA
22:00 20.8 17.8 83 0.0 LegendMM LegendMM   100.05 27   LegendNANA
23:00 20.6 17.9 85 0.0 LegendMM LegendMM   100.09 27   LegendNANA

Notes on Data Quality.

Legend

  • E = Estimated
  • M = Missing
  • NA = Not Available*
  • [empty] = Indicates an unobserved value
Date modified: